Showing default

UM5-RIBAT, 60554

Orbit data source: Space-Track

UM5-RIBAT, 60554 is a Moroccan payload satellite in SSO that was launched on Fri, 16 Aug 2024 UTC via an FALCON 9 launch vehicle from the Air Force Western Test Range (AFWTR). Payload-class satellites include a variety of spacecraft equipped with specific instruments for various scientific and technological missions. These include communications satellites like Starlink; space stations such as the ISS; scientific satellites like the Hubble; Earth observation satellites from companies like Planet Labs, Umbra, and HawkEye 360; GPS; miniature CubeSats for education and research; and military/defense satellites.

Loading next visibility...
Identifier
60554, 2024-149CQ
Orbit
SSO
Country
Flag of MAMA
Related business
Manufacturer
UM5R
Mission
Operational Amateur Technology
Bus & Motor
CUBESAT 3U, Unknown motor
Mass
5 kg wet, 5 kg dry
Launch date (UTC)
2024-08-16 (1 year ago)
Launch vehicle
FALCON 9
Launch site
Air Force Western Test Range (AFWTR)
Object type
Payload
Rocket body
Debris
Shape & HBR
Box, 0.1 m
Radar Cross Section
0.080 m², Small (<0.1 m²)

Expand to show TLE details & history
Last TLE update: 8 hours ago

TLE from 8 hours ago
0 UM5-RIBAT
1 60554U 24149CQ  25291.14618794  .00006531  00000-0  54567-3 0  9994
2 60554  97.7002   6.9436 0009094 159.7236 200.4350 14.98826604 63900
Epoch: 2025-10-18T03:30Z
TLE epoch observation values (Epoch: 2025-10-18T03:30:30.638Z)
Latitude
0.00004°
Longitude
-72.56546°
Altitude
579.497 km
Speed
7.568 km/s
True Right ascension
00h 27m 46s
True Declination
0° 00' 00"
Sunlit
Object was in full shadow at epoch
Visualization orbit readout
Latitude
Unknown
Longitude
Unknown
Altitude
Unknown
Speed
Unknown
Apparent Right ascension
Unknown
Apparent Declination
Unknown
Sunlit
N/A
Visualization observer readout
Local Sidereal Time
05:51:00
Azimuth
Unknown
Elevation
Unknown
Doppler factor
Unknown
Orbital elements
Apogee altitude
573.844 km
Perigee altitude
561.211 km
Semi-major axis
6,945.664 km
Eccentricity
0.00091
Inclination
97.7002°
RAAN
6.9436°
Arg. of periapsis
159.7236°
True anomaly
200.39865°
Mean anomaly
200.435°
Eccentric anomaly
200.41682°
Mean motion
3.74949 °/min
Orbital period
96.01 mins
BSTAR
0.00054567
Loading maneuver chart data...
Computing Atmospheric mass density...
Loading historical data...
Loading historical data...
Loading historical data...
Loading historical data...
Loading historical data...
Loading historical data...
Loading historical data...

Documentation

Showing up to 5 results
|